Location: Dodgeville, WI 53533, USA
(43.0344°N, 90.0900°W)
Time: 23:47:37
(UTC-06:00)

ISS - Pass Details

Date: 29 January 2021
Orbit: 417 x 422 km, 51.6° (Epoch: 08 March)

Event Time Altitude Azimuth Distance (km) Brightness Sun altitude
Rises 18:49:21 0° 303° (WNW) 2,375 0.9 -18.4°
Reaches altitude 10° 18:51:44 10° 318° (NW) 1,509 -0.5 -18.8°
Enters shadow 18:54:07 23° 2° (N) 960 -2.1 -19.2°
